Showing default

HULIANWANG DIGUI-04, 62326

Orbit data source: Space-Track

HULIANWANG DIGUI-04, 62326 is a payload satellite owned by Zhongguo Xingwang (CN) in LEO that was launched on Mon, 16 Dec 2024 UTC via a CHANG ZHENG 5B/YZ-2 launch vehicle from the Wenchang Satellite Launch Center (WSC). Payload-class satellites include a variety of spacecraft equipped with specific instruments for various scientific and technological missions. These include communications satellites like Starlink; space stations such as the ISS; scientific satellites like the Hubble; Earth observation satellites from companies like Planet Labs, Umbra, and HawkEye 360; GPS; miniature CubeSats for education and research; and military/defense satellites.

Loading next visibility...
Identifier
62326, 2024-240D
Orbit
LEO
Country
Flag of CNCN / PRC
Related business
Manufacturer
CAST?
Mission
Operational Civil Communications
Bus & Motor
XINGWANG CL, Unknown motor
Mass
~800 kg wet, ~800 kg dry
Launch date (UTC)
2024-12-16 (1 year ago)
Launch vehicle
CHANG ZHENG 5B/YZ-2
Launch site
Wenchang Satellite Launch Center (WSC)
Object type
Payload
Rocket body
Debris
Shape & HBR
Box + 2 Pan, 5.0 m
Radar Cross Section
5.935 m², Large (>1 m²)

Expand to show TLE details & history
Last TLE update: 4 hours ago

TLE from 4 hours ago
0 HULIANWANG DIGUI-04
1 62326U 24240D   26126.50709961  .00000056  00000-0  96632-4 0  9996
2 62326  86.5015 357.2484 0001557  70.8395 289.2907 13.24406910 67122
Epoch: 2026-05-06T12:10Z
TLE epoch observation values (Epoch: 2026-05-06T12:10:13.406Z)
Latitude
-0.00006°
Longitude
-49.67406°
Altitude
1,170.44 km
Speed
7.268 km/s
True Right ascension
23h 48m 59s
True Declination
0° 00' 00"
Sunlit
Object was in daylight at epoch
Visualization orbit readout
Latitude
Unknown
Longitude
Unknown
Altitude
Unknown
Speed
Unknown
Apparent Right ascension
Unknown
Apparent Declination
Unknown
Sunlit
N/A
Visualization observer readout
Local Sidereal Time
23:45:27
Azimuth
Unknown
Elevation
Unknown
Doppler factor
Unknown
Orbital elements
Apogee altitude
1,166.228 km
Perigee altitude
1,163.879 km
Semi-major axis
7,543.191 km
Eccentricity
0.00016
Inclination
86.5015°
RAAN
357.2484°
Arg. of periapsis
70.8395°
True anomaly
289.27386°
Mean anomaly
289.2907°
Eccentric anomaly
289.28228°
Mean motion
3.31292 °/min
Orbital period
108.67 mins
BSTAR
0.000096632
Loading maneuver chart data...
Computing Atmospheric mass density...
Loading historical data...
Loading historical data...
Loading historical data...
Loading historical data...
Loading historical data...
Loading historical data...
Loading historical data...

Documentation

Showing up to 5 results
|